Skip Page Navigation
NASA JPL Caltech
NASA Logo - Jet Propulsion Laboratory + View the NASA Portal
+ Center for Near-Earth Object Studies
JPL Home Earth Solar System Stars & Galaxies Technology
JPL Solar System Dynamics
BODIES ORBITS EPHEMERIDES TOOLS PHYSICAL DATA DISCOVERY FAQ SITE MAP
IMPORTANT: The SSD Announcement email list is now available. Major changes are coming in the near future, including possible hostname and/or URL changes. To be notified of such changes, subscribe to this email list.

Please visit this page for more details.


JPL Small-Body Database Browser
Search: [ help ]  
351268 (2004 RB196)
Classification: Main-belt Asteroid          SPK-ID: 2351268
Ephemeris | Orbit Diagram | Orbital Elements | Mission Design | Physical Parameters | Discovery Circumstances | Close-Approach Data ]

[ show orbit diagram ]
Orbital Elements at Epoch 2459000.5 (2020-May-31.0) TDB
Reference: JPL 14 (heliocentric ecliptic J2000)
 Element Value Uncertainty (1-sigma)   Units 
e .1053482470780833 7.1094e-08  
a 3.199449628818363 5.4439e-08 au
q 2.862393218807724 2.3679e-07 au
i 11.8013494516159 8.6583e-06 deg
node 338.7266255216798 2.7816e-05 deg
peri 324.9590725489519 4.28e-05 deg
M 321.1382582934336 3.5213e-05 deg
tp 2459226.147799545590
(2021-Jan-11.64779955)
0.0002067 TDB
period 2090.313101501739
5.72
5.335e-05
1.461e-07
d
yr
n .172223003214861 4.3956e-09 deg/d
Q 3.536506038829001 6.0174e-08 au
  Orbit Determination Parameters
   # obs. used (total)      267  
   data-arc span      5322 days (14.57 yr)  
   first obs. used      2004-09-10  
   last obs. used      2019-04-07  
   planetary ephem.      DE431  
   SB-pert. ephem.      SB431-N16  
   condition code      0  
   norm. resid. RMS      .59518  
   source      ORB  
   producer      Otto Matic  
   solution date      2019-Jul-13 19:06:44  

Additional Information
 Earth MOID = 1.85715 au 
 Jupiter MOID = 1.81322 au 
 T_jup = 3.153 
[ show covariance matrix ]

Ephemeris | Orbit Diagram | Orbital Elements | Mission Design | Physical Parameters | Discovery Circumstances | Close-Approach Data ]

Physical Parameter Table
Parameter Symbol Value Units Sigma Reference Notes
absolute magnitude H 15.4   n/a MPO437487  

351268 (2004 RB196)          Discovered 2004-Sep-10 by LINEAR at Socorro
Reference: 20130127/Numbers.arcLast Updated: 2013-01-31

[ show close-approach data ]
Alternate Designations
 2004 RB196 = 2010 OE87 
Ephemeris | Orbit Diagram | Orbital Elements | Mission Design | Physical Parameters | Discovery Circumstances | Close-Approach Data ]
ABOUT SSD CREDITS/AWARDS PRIVACY/COPYRIGHT GLOSSARY LINKS
FirstGov 2020-May-25 04:35 UT
(server date/time)  
NASA Home Page
Site Manager:   Ryan S. Park
Webmaster  Alan B. Chamberlin